| time (UTC) | temp F | wind direction | speed knots | gust knots | rain 1hr in | rain 24hr in | rain mn in | humidity % | barometer mb |
| 20260506001539 | 65 | 191 | 1.7 | 8.7 | 0.00 | 0.00 | 0.00 | 67 | 1015.1 |
| 20260506000037 | 65 | 320 | 2.6 | 7.8 | 0.00 | 0.00 | 0.00 | 65 | 1015.2 |
| 20260505234536 | 64 | 302 | 2.6 | 8.7 | 0.00 | 0.00 | 0.00 | 67 | 1015.4 |
| 20260505233033 | 64 | 308 | 1.7 | 7.0 | 0.00 | 0.00 | 0.00 | 67 | 1015.6 |
| 20260505231533 | 64 | 236 | 3.5 | 7.0 | 0.00 | 0.00 | 0.00 | 67 | 1015.7 |
| 20260505230036 | 63 | 212 | 3.5 | 6.1 | 0.00 | 0.00 | 0.00 | 68 | 1015.8 |
| 20260505224530 | 62 | 197 | 3.5 | 6.1 | 0.00 | 0.00 | 0.00 | 70 | 1015.9 |
| 20260505223036 | 62 | 316 | 1.7 | 6.1 | 0.00 | 0.00 | 0.00 | 69 | 1016.1 |
| 20260505221525 | 62 | 214 | 2.6 | 7.0 | 0.00 | 0.00 | 0.00 | 72 | 1016.3 |
| 20260505220042 | 61 | 305 | 2.6 | 8.7 | 0.00 | 0.00 | 0.00 | 71 | 1016.1 |
| 20260505214530 | 61 | 247 | 1.7 | 4.3 | 0.00 | 0.00 | 0.00 | 72 | 1016.4 |
| 20260505213021 | 61 | 278 | 3.5 | 7.8 | 0.00 | 0.00 | 0.00 | 72 | 1016.4 |
| 20260505211520 | 61 | 263 | 0.9 | 6.1 | 0.00 | 0.00 | 0.00 | 72 | 1016.5 |
| 20260505210017 | 59 | 295 | 1.7 | 7.8 | 0.00 | 0.00 | 0.00 | 74 | 1016.5 |
| 20260505204515 | 59 | 230 | 1.7 | 6.1 | 0.00 | 0.00 | 0.00 | 75 | 1016.6 |
| 20260505203013 | 59 | 226 | 0.9 | 5.2 | 0.00 | 0.00 | 0.00 | 76 | 1016.6 |
| 20260505201510 | 58 | 253 | 3.5 | 8.7 | 0.00 | 0.00 | 0.00 | 77 | 1016.6 |
| 20260505200014 | 57 | 262 | 2.6 | 7.0 | 0.00 | 0.00 | 0.00 | 78 | 1016.6 |
| 20260505194506 | 57 | 251 | 2.6 | 7.8 | 0.00 | 0.00 | 0.00 | 78 | 1016.7 |
| 20260505193003 | 56 | 258 | 2.6 | 7.8 | 0.00 | 0.00 | 0.00 | 79 | 1016.6 |
| 20260505191609 | 56 | 195 | 3.5 | 6.1 | 0.00 | 0.00 | 0.00 | 80 | 1016.6 |
| 20260505190055 | 56 | 204 | 1.7 | 4.3 | 0.00 | 0.00 | 0.00 | 80 | 1016.7 |
| 20260505184557 | 55 | 220 | 3.5 | 7.8 | 0.00 | 0.00 | 0.00 | 81 | 1016.7 |
| 20260505183050 | 55 | 212 | 0.0 | 7.8 | 0.00 | 0.00 | 0.00 | 82 | 1016.6 |
| 20260505181555 | 56 | 169 | 1.7 | 5.2 | 0.00 | 0.00 | 0.00 | 82 | 1016.6 |
| 20260505180046 | 55 | 222 | 3.5 | 6.1 | 0.00 | 0.00 | 0.00 | 82 | 1016.5 |
| 20260505174547 | 55 | 204 | 2.6 | 6.1 | 0.00 | 0.00 | 0.00 | 83 | 1016.5 |
| 20260505173040 | 54 | 264 | 0.9 | 6.1 | 0.00 | 0.00 | 0.00 | 83 | 1016.4 |
| 20260505171539 | 54 | 212 | 0.9 | 5.2 | 0.00 | 0.00 | 0.00 | 83 | 1016.3 |
| 20260505170037 | 54 | 196 | 1.7 | 7.8 | 0.00 | 0.00 | 0.00 | 84 | 1016.2 |
| 20260505164535 | 54 | 218 | 2.6 | 7.0 | 0.00 | 0.00 | 0.00 | 84 | 1016.2 |
| 20260505163032 | 54 | 219 | 2.6 | 6.1 | 0.00 | 0.00 | 0.00 | 84 | 1016.1 |
| 20260505161540 | 54 | 234 | 1.7 | 5.2 | 0.00 | 0.00 | 0.00 | 85 | 1016.0 |
| 20260505153026 | 53 | 227 | 3.5 | 7.0 | 0.00 | 0.00 | 0.00 | 85 | 1015.9 |
| 20260505151523 | 53 | 177 | 1.7 | 7.0 | 0.00 | 0.00 | 0.00 | 86 | 1015.8 |
| 20260505124510 | 53 | 206 | 3.5 | 6.1 | 0.00 | 0.00 | 0.00 | 88 | 1014.5 |
| 20260505123002 | 53 | 194 | 0.9 | 2.6 | 0.00 | 0.00 | 0.00 | 88 | 1014.4 |
| 20260505121559 | 53 | 210 | 0.0 | 4.3 | 0.00 | 0.00 | 0.00 | 88 | 1014.3 |
| 20260505120104 | 53 | 210 | 3.5 | 7.0 | 0.00 | 0.00 | 0.00 | 89 | 1014.2 |
| 20260505114555 | 53 | 210 | 0.9 | 5.2 | 0.00 | 0.00 | 0.00 | 89 | 1014.2 |
| 20260505113108 | 53 | 207 | 1.7 | 3.5 | 0.00 | 0.00 | 0.00 | 89 | 1014.2 |
| 20260505111554 | 53 | 127 | 0.9 | 2.6 | 0.00 | 0.00 | 0.00 | 88 | 1014.2 |
| 20260505101552 | 53 | 216 | 1.7 | 5.2 | 0.00 | 0.00 | 0.00 | 89 | 1013.8 |
| 20260505100048 | 52 | 229 | 1.7 | 4.3 | 0.00 | 0.00 | 0.00 | 89 | 1013.8 |
| 20260505094547 | 52 | 187 | 1.7 | 10.4 | 0.00 | 0.00 | 0.00 | 89 | 1013.6 |
| 20260505093048 | 52 | 172 | 2.6 | 7.0 | 0.00 | 0.00 | 0.00 | 90 | 1013.5 |
| 20260505091544 | 52 | 235 | 1.7 | 7.0 | 0.00 | 0.00 | 0.00 | 90 | 1013.5 |
| 20260505090142 | 52 | 228 | 1.7 | 5.2 | 0.00 | 0.00 | 0.00 | 90 | 1013.4 |
| 20260505084551 | 52 | 220 | 0.9 | 3.5 | 0.00 | 0.00 | 0.00 | 90 | 1013.4 |
| 20260505083054 | 52 | 220 | 0.9 | 4.3 | 0.00 | 0.00 | 0.00 | 90 | 1013.3 |
| 20260505081542 | 51 | 210 | 0.9 | 2.6 | 0.00 | 0.00 | 0.00 | 90 | 1013.2 |
| 20260505080045 | 52 | 228 | 0.0 | 0.9 | 0.00 | 0.00 | 0.00 | 89 | 1013.2 |
| 20260505074536 | 52 | 206 | 0.0 | 1.7 | 0.00 | 0.00 | 0.00 | 89 | 1013.1 |
| 20260505073036 | 52 | 230 | 0.0 | 1.7 | 0.00 | 0.00 | 0.00 | 89 | 1012.9 |
| 20260505071543 | 53 | 230 | 0.0 | 2.6 | 0.00 | 0.00 | 0.00 | 88 | 1012.6 |
| 20260505070030 | 53 | 209 | 0.0 | 2.6 | 0.00 | 0.00 | 0.00 | 88 | 1012.6 |
| 20260505064533 | 53 | 232 | 0.9 | 3.5 | 0.00 | 0.00 | 0.00 | 87 | 1012.5 |
| 20260505063027 | 54 | 276 | 0.0 | 0.9 | 0.00 | 0.00 | 0.00 | 87 | 1012.4 |
| 20260505061529 | 54 | 301 | 0.0 | 0.0 | 0.00 | 0.00 | 0.00 | 86 | 1012.2 |
| 20260505060033 | 54 | 260 | 0.9 | 6.1 | 0.00 | 0.00 | 0.00 | 85 | 1012.1 |
| 20260505054522 | 55 | 268 | 1.7 | 7.0 | 0.00 | 0.00 | 0.00 | 84 | 1011.8 |
| 20260505053025 | 55 | 254 | 2.6 | 7.8 | 0.00 | 0.00 | 0.00 | 83 | 1011.8 |
| 20260505051520 | 56 | 236 | 0.9 | 4.3 | 0.00 | 0.00 | 0.00 | 82 | 1011.7 |
| 20260505041517 | 59 | 240 | 2.6 | 9.6 | 0.00 | 0.00 | 0.00 | 76 | 1011.1 |
| 20260505040017 | 60 | 236 | 6.1 | 13.0 | 0.00 | 0.00 | 0.00 | 74 | 1011.0 |
| 20260505034516 | 61 | 262 | 2.6 | 9.6 | 0.00 | 0.00 | 0.00 | 71 | 1010.8 |
| 20260505033019 | 62 | 289 | 6.1 | 12.2 | 0.00 | 0.00 | 0.00 | 69 | 1010.5 |
| 20260505031517 | 64 | 276 | 3.5 | 10.4 | 0.00 | 0.00 | 0.00 | 66 | 1010.3 |
| 20260505030015 | 66 | 251 | 4.3 | 8.7 | 0.00 | 0.00 | 0.00 | 63 | 1010.1 |
| 20260505024514 | 68 | 273 | 2.6 | 9.6 | 0.00 | 0.00 | 0.00 | 61 | 1009.9 |
| 20260505023014 | 69 | 281 | 4.3 | 9.6 | 0.00 | 0.00 | 0.00 | 59 | 1009.7 |
| 20260505021514 | 69 | 259 | 3.5 | 9.6 | 0.00 | 0.00 | 0.00 | 57 | 1009.7 |
| 20260505020017 | 70 | 285 | 5.2 | 10.4 | 0.00 | 0.00 | 0.00 | 54 | 1009.6 |
| 20260505014520 | 72 | 270 | 4.3 | 13.0 | 0.00 | 0.00 | 0.00 | 53 | 1009.7 |
| 20260505013011 | 72 | 251 | 7.0 | 11.3 | 0.00 | 0.00 | 0.00 | 53 | 1009.6 |
| 20260505011511 | 73 | 312 | 6.1 | 13.9 | 0.00 | 0.00 | 0.00 | 52 | 1009.6 |
| 20260505010010 | 74 | 305 | 7.0 | 13.9 | 0.00 | 0.00 | 0.00 | 52 | 1009.6 |
| 20260505004514 | 75 | 280 | 6.1 | 12.2 | 0.00 | 0.00 | 0.00 | 51 | 1009.5 |
| 20260505003005 | 75 | 308 | 6.1 | 9.6 | 0.00 | 0.00 | 0.00 | 51 | 1009.5 |